Siga o Apolo11 no Facebook   Siga o Apolo11 no Twiiter
Ciência, Espaço e Tecnologia




Elementos Keplerianos formato Two Line

Para que um programa de rastreio possa saber a localização exata de qualquer satélite no espaço e assim poder rastreá-lo corretamente, é necessário que ele seja carregado com algumas informações.

Estas informações são chamadas de Elementos Orbitais ou Elementos Keplerianos e consistem em 2 linhas com dezenas de números. Esses números nada mais são que os parâmetros orbitais do satélite, tais como altitude, atitude, excentricidade da órbita, número de órbitas por dia, etc.

Com base nestas informações o programa é capaz de determinar com bastante exatidão a posição de qualquer satélite no espaço e nos informar em qual horário este estará dentro do alcance de nossa estação. Para que isso seja feito com precisão é necessário que os dados estejam sempre bem atualizadas.

Devido aos parâmetros orbitais serem descritos em 2 linhas, estes formato é também conhecido internacionalmente por 2line (leia-se Two Line”).

Para atualizar seu programa de rastreio basta copiar os dados disponibilizados e fornece-los ao programa. Nossos elementos orbitais são atualizados diariamente.

NOAATodos os satélites ambientais da série NOAA
30 DiasSatélites lançados nos últimos 30 dias
ISSSatélites e foguetes relacionados à Estação Espacial Internacional
HAMSatélites construídos por radiomadores
CUBESatélites tipo cubo, com 10 centímetros de lado
METEOSatélites voltados à previsão do tempo
EDUSatélites construídos e operados por universidades
VIS100 satélites mais brilhantes que podem ser vistos a olho nú



Satélites série NOAA
NOAA 1 [-]              
1 04793U 70106A   23266.61168125 -.00000045  00000+0 -10140-4 0  9996
2 04793 101.4926 322.4899 0031927 139.4209 348.5334 12.54018846415644
NOAA 2 (ITOS-D) [-]     
1 06235U 72082A   23266.57951549 -.00000012  00000+0  21930-3 0  9990
2 06235 102.0007 257.6411 0003714 273.5574 194.9904 12.53167730329984
NOAA 3 [-]              
1 06920U 73086A   23266.60107441 -.00000013  00000+0  24460-3 0  9996
2 06920 102.2573 255.4789 0006462 155.2427 315.1478 12.40358252258212
NOAA 4 [-]              
1 07529U 74089A   23266.55714128 -.00000023  00000+0  14566-3 0  9993
2 07529 101.9663 253.5929 0008751 301.1251 170.6789 12.53171790234553
NOAA 5 [-]              
1 09057U 76077A   23266.91821694 -.00000005  00000+0  30877-3 0  9990
2 09057 102.1658 236.2410 0010081   7.7356  54.7458 12.37789131131305
TIROS N [-]             
1 11060U 78096A   23266.56361694  .00000249  00000+0  14047-3 0  9990
2 11060  98.5737 311.4474 0009552 246.0941 113.9235 14.18631936537269
NOAA 6 [-]              
1 11416U 79057A   23266.59007196  .00000585  00000+0  22463-3 0  9994
2 11416  98.6502 282.9380 0009777 337.6191  22.4566 14.34164206307890
NOAA 7 [-]              
1 12553U 81059A   23267.16169104  .00000075  00000+0  59337-4 0  9999
2 12553  98.9362 320.6975 0010711 232.8455 127.1741 14.17438997183701
NOAA 8 [-]              
1 13923U 83022A   23266.55938182  .00000314  00000+0  14151-3 0  9995
2 13923  98.7198 261.2518 0014063 297.9795  61.9963 14.29044395108542
NOAA 9 [-]              
1 15427U 84123A   23266.81955512  .00000268  00000+0  15829-3 0  9995
2 15427  99.0997 252.9956 0013955 295.1860 133.8268 14.16416101  2431
NOAA 10 [-]             
1 16969U 86073A   23266.58434515  .00000320  00000+0  14530-3 0  9999
2 16969  98.6144 250.4741 0012990  39.7947  70.1066 14.28421516926942
NOAA 11 [-]             
1 19531U 88089A   23266.52456798  .00000164  00000+0  10536-3 0  9995
2 19531  98.4779 236.4975 0010029 287.1830  72.8247 14.15429468806325
NOAA 12 [-]             
1 21263U 91032A   23266.56712781  .00000228  00000+0  11316-3 0  9991
2 21263  98.5401 259.0458 0014788  66.4733 293.7999 14.26163233682738
NOAA 13 [-]             
1 22739U 93050A   23266.50408183  .00000271  00000+0  16727-3 0  9993
2 22739  98.5649 229.7934 0010621  97.1627 263.0754 14.13044745552680
NOAA 14 [-]             
1 23455U 94089A   23266.82028779  .00000114  00000+0  80785-4 0  9998
2 23455  98.4284 272.7998 0010628  74.0095 286.2249 14.14301433482441
NOAA 15 [B]             
1 25338U 98030A   23267.13591995  .00000267  00000+0  12893-3 0  9993
2 25338  98.6002 294.4761 0010803  30.8170 329.3642 14.26394113319367
NOAA 16 [-]             
1 26536U 00055A   23266.58678646  .00000123  00000+0  87376-4 0  9991
2 26536  98.5735 312.8930 0009362 283.2912  76.7217 14.13466510482773
NOAA 17 [-]             
1 27453U 02032A   23266.56883337  .00000364  00000+0  17293-3 0  9997
2 27453  98.7240 212.8919 0012100  11.4115 348.7336 14.25366220104822
NOAA 18 [B]             
1 28654U 05018A   23267.13189276  .00000304  00000+0  18659-3 0  9994
2 28654  98.9025 341.0141 0015301 100.0975 260.1924 14.13011690945543
NOAA 19 [+]             
1 33591U 09005A   23267.11802962  .00000249  00000+0  15879-3 0  9991
2 33591  99.0900 314.5824 0013223 328.0019  32.0348 14.12825958753911
SUOMI NPP [+]           
1 37849U 11061A   23267.05921226  .00000173  00000+0  10253-3 0  9991
2 37849  98.7090 204.1133 0001127  60.5231 358.8035 14.19569668616963
NOAA 20 [+]             
1 43013U 17073A   23267.15319865  .00000161  00000+0  96925-4 0  9999
2 43013  98.7169 204.0591 0001093 107.7929 252.3367 14.19566629303016
NOAA 21 (JPSS-2) [+]    
1 54234U 22150A   23266.81666465  .00000188  00000+0  10993-3 0  9990
2 54234  98.7206 203.2397 0001500  99.2957 260.8389 14.19550476 45046


IMAGENS DE SATÉLITES !    Clique e conheça nosso Vídeo Workshop de sensoriamento remoto e imagens meteorológicas.
Apolo11.com - Todos os direitos reservados - 2001 - 2023
Política de Privacidade

"Nós amamos nossa pátria não porque ela seja forte ou rica, mas por ser a que temos" - Autor desconhecido